Location: Athens-Covington-Pier
(33.9360°N, 83.4200°W)
Time: 10:09:26
(UTC-04:00)

Hubble Space Telescope - Visible Passes

Search period start: 20 October 2019 00:00
Search period end: 30 October 2019 00:00
Orbit: 536 x 540 km, 28.5° (Epoch: 19 October)

Date Brightness Start Highest point End Pass type
(mag) Time Alt. Az. Time Alt. Az. Time Alt. Az.
28 Oct 3.6 05:37:48 10° SSE 05:38:05 10° SSE 05:38:22 10° SSE visible
28 Oct 2.6 07:15:13 10° SW 07:18:40 26° SSE 07:22:09 10° ESE visible
29 Oct 3.5 05:28:07 12° SE 05:28:07 12° SE 05:29:15 10° SE visible
29 Oct 2.3 07:04:26 10° SW 07:08:02 29° S 07:11:39 10° ESE visible
